EW5818 Weather Reports


time (UTC)temp
F
wind
direction
speed
knots
gust
knots
rain 1hr
in
rain 24hr
in
rain mn
in
humidity
%
barometer
mb
20260906202003 87 170 3.5 9.6 0.00 0.00 0.00 58 1015.2
20260906201003 87 181 5.2 10.4 0.00 0.00 0.00 58 1015.3
20260906200502 87 175 4.3 10.4 0.00 0.00 0.00 56 1015.4
20260906200002 87 159 3.5 7.8 0.00 0.00 0.00 58 1015.5
20260906195003 87 152 4.3 11.3 0.00 0.00 0.00 59 1015.6
20260906194503 87 171 3.5 11.3 0.00 0.00 0.00 58 1015.6
20260906194003 87 182 3.5 7.8 0.00 0.00 0.00 61 1015.7
20260906193502 87 189 3.5 10.4 0.00 0.00 0.00 60 1015.8
20260906193003 86 186 3.5 10.4 0.00 0.00 0.00 59 1015.8
20260906192502 86 178 3.5 9.6 0.00 0.00 0.00 61 1015.9
20260906192003 86 205 3.5 10.4 0.00 0.00 0.00 61 1016.0
20260906191502 86 220 3.5 10.4 0.00 0.00 0.00 59 1016.0
20260906191003 86 214 3.5 9.6 0.00 0.00 0.00 60 1016.0
20260906190503 86 194 3.5 9.6 0.00 0.00 0.00 60 1016.1
20260906185503 85 173 3.5 8.7 0.00 0.00 0.00 61 1016.2
20260906184003 85 193 3.5 12.2 0.00 0.00 0.00 62 1016.4
20260906183002 84 195 5.2 13.0 0.00 0.00 0.00 63 1016.4
20260906181503 83 206 5.2 12.2 0.00 0.00 0.00 66 1016.6
20260906175002 82 197 5.2 10.4 0.00 0.00 0.00 69 1016.9
20260906174503 82 182 6.1 11.3 0.00 0.00 0.00 71 1017.1
20260906173502 81 207 5.2 10.4 0.00 0.00 0.00 71 1017.1
20260906173003 81 202 5.2 13.0 0.00 0.00 0.00 71 1017.1
20260906172502 81 207 5.2 13.0 0.00 0.00 0.00 71 1017.2
20260906171503 80 197 5.2 12.2 0.00 0.00 0.00 71 1017.4
20260906170003 80 210 4.3 11.3 0.00 0.00 0.00 73 1017.5
20260906165502 80 204 4.3 11.3 0.00 0.00 0.00 73 1017.6
20260906164503 79 194 4.3 12.2 0.00 0.00 0.00 72 1017.7
20260906163503 79 184 5.2 13.0 0.00 0.00 0.00 72 1017.5
20260906162502 78 210 5.2 13.9 0.00 0.00 0.00 77 1017.5
20260906162003 78 216 5.2 13.9 0.00 0.00 0.00 76 1017.6
20260906161503 77 209 4.3 9.6 0.00 0.00 0.00 78 1017.7
20260906160503 77 187 4.3 13.0 0.00 0.00 0.00 79 1017.6
20260906160003 76 187 4.3 10.4 0.00 0.00 0.00 80 1017.7
20260906155003 76 176 3.5 11.3 0.00 0.00 0.00 80 1017.6
20260906152003 74 161 4.3 10.4 0.00 0.00 0.00 83 1017.4
20260906151003 74 151 3.5 8.7 0.00 0.00 0.00 83 1017.5
20260906150503 74 144 4.3 7.8 0.00 0.00 0.00 82 1017.5
20260906145003 74 162 1.7 8.7 0.00 0.00 0.00 82 1017.6
20260906144503 75 160 0.9 4.3 0.00 0.00 0.00 82 1017.7
20260906143502 74 190 0.0 1.7 0.00 0.00 0.00 84 1017.6
20260906143003 73 147 0.9 2.6 0.00 0.00 0.00 84 1017.4
20260906142003 73 97 0.9 2.6 0.00 0.00 0.00 84 1017.2
20260906141503 74 99 0.0 2.6 0.00 0.00 0.00 84 1017.2
20260906140503 72 108 0.0 0.9 0.00 0.00 0.00 91 1017.3
20260906140003 71 91 0.9 2.6 0.00 0.00 0.00 91 1017.3
20260906135004 69 98 0.0 2.6 0.00 0.00 0.00 92 1017.1
20260906134503 69 100 0.0 2.6 0.00 0.00 0.00 92 1017.3
20260906134003 68 85 0.0 2.6 0.00 0.00 0.00 93 1017.1
20260906133503 68 90 0.9 2.6 0.00 0.00 0.00 93 1017.1
20260906133003 68 101 0.9 4.3 0.00 0.00 0.00 93 1017.0
20260906132503 68 96 0.9 4.3 0.00 0.00 0.00 94 1016.9
20260906131503 67 104 2.6 5.2 0.00 0.00 0.00 95 1016.8
20260906131003 67 91 2.6 5.2 0.00 0.00 0.00 96 1016.3
20260906130503 67 91 1.7 5.2 0.00 0.00 0.00 96 1016.3
20260906130003 67 87 0.9 3.5 0.00 0.00 0.00 96 1016.4
20260906124003 66 61 1.7 5.2 0.00 0.00 0.00 96 1016.4
20260906122502 66 67 2.6 5.2 0.00 0.00 0.00 96 1015.6
20260906121503 66 171 1.7 3.5 0.00 0.00 0.00 96 1016.1
20260906121004 66 71 2.6 7.0 0.00 0.00 0.00 96 1016.2
20260906120003 66 118 0.0 2.6 0.00 0.00 0.00 96 1016.4
20260906115503 66 126 0.0 1.7 0.00 0.00 0.00 96 1016.6
20260906115003 65 95 0.0 1.7 0.00 0.00 0.00 96 1016.3
20260906114503 65 95 0.9 2.6 0.00 0.00 0.00 96 1016.3
20260906113003 65 88 0.0 0.9 0.00 0.00 0.00 96 1016.4
20260906112504 66 92 0.0 2.6 0.00 0.00 0.00 96 1016.3
20260906112003 66 90 0.0 2.6 0.00 0.00 0.00 96 1016.3
20260906111503 66 76 0.0 1.7 0.00 0.00 0.00 96 1016.3
20260906111003 66 83 0.9 2.6 0.00 0.00 0.00 96 1016.2
20260906110004 66 89 0.0 2.6 0.00 0.00 0.00 96 1016.1
20260906105503 66 85 0.9 6.1 0.00 0.00 0.00 96 1016.1
20260906105003 66 81 1.7 6.1 0.00 0.00 0.00 96 1015.9
20260906104503 66 94 4.3 12.2 0.00 0.00 0.00 96 1015.9
20260906104003 66 98 5.2 12.2 0.00 0.00 0.00 96 1015.9
20260906103003 66 94 3.5 10.4 0.00 0.00 0.00 96 1016.0
20260906102503 66 90 4.3 10.4 0.00 0.00 0.00 96 1015.2
20260906101003 66 94 5.2 13.0 0.00 0.00 0.00 96 1015.2
20260906100503 66 96 7.0 13.0 0.00 0.00 0.00 96 1014.9
20260906100003 66 100 7.8 13.0 0.00 0.00 0.00 96 1014.5
20260906095504 66 101 7.8 17.4 0.00 0.00 0.00 96 1015.1
20260906094503 65 93 7.8 17.4 0.00 0.00 0.00 95 1015.4
20260906094004 65 91 9.6 17.4 0.00 0.00 0.00 95 1015.1
20260906093503 65 91 7.8 15.6 0.00 0.00 0.00 95 1015.2
20260906092503 65 98 6.1 10.4 0.00 0.00 0.00 93 1016.6
20260906092003 66 98 4.3 8.7 0.00 0.00 0.00 92 1017.8
20260906091504 66 78 4.3 7.8 0.00 0.00 0.00 91 1017.8
20260906091003 66 47 4.3 7.8 0.00 0.00 0.00 90 1017.8
20260906090503 66 4 5.2 10.4 0.00 0.00 0.00 89 1017.7
20260906090004 66 356 7.8 12.2 0.00 0.00 0.00 89 1017.9
20260906084503 67 294 9.6 14.8 0.00 0.00 0.00 86 1018.8
20260906082002 65 312 9.6 13.0 0.00 0.00 0.00 94 1017.8
20260906081502 64 312 11.3 18.2 0.00 0.00 0.00 96 1018.1
20260906065002 68 276 25.2 40.0 0.00 0.00 0.00 87 1018.0
20260906062502 78 153 0.0 1.7 0.00 0.00 0.00 80 1016.0
20260906040002 78 270 1.7 5.2 0.00 0.00 0.00 83 1016.2
20260906035003 80 248 0.9 1.7 0.00 0.00 0.00 81 1016.1
20260906034502 80 108 0.9 2.6 0.00 0.00 0.00 80 1016.0
20260906033502 80 110 1.7 2.6 0.00 0.00 0.00 79 1015.8
20260906033003 80 109 0.9 2.6 0.00 0.00 0.00 79 1015.6
20260906032002 80 91 2.6 4.3 0.00 0.00 0.00 79 1015.4
20260906031502 80 92 2.6 4.3 0.00 0.00 0.00 79 1015.3
20260906031002 80 90 1.7 3.5 0.00 0.00 0.00 78 1015.3
20260906030502 80 91 1.7 3.5 0.00 0.00 0.00 78 1015.2
20260906023503 81 113 2.6 5.2 0.00 0.00 0.00 76 1014.6
20260906023002 81 116 2.6 7.0 0.00 0.00 0.00 75 1014.4
20260906021503 81 102 5.2 10.4 0.00 0.00 0.00 74 1014.1
20260906021003 81 99 6.1 11.3 0.00 0.00 0.00 74 1014.1
20260906020002 81 101 6.1 13.0 0.00 0.00 0.00 73 1014.0
20260906015503 82 97 6.1 13.0 0.00 0.00 0.00 72 1014.2
20260906014502 82 96 5.2 10.4 0.00 0.00 0.00 71 1014.5
20260906014002 82 94 5.2 10.4 0.00 0.00 0.00 71 1014.6
20260906013002 82 96 4.3 7.8 0.00 0.00 0.00 70 1014.5
20260906012502 82 97 4.3 7.0 0.00 0.00 0.00 70 1014.5
20260906011502 82 94 4.3 8.7 0.00 0.00 0.00 69 1014.6
20260906004503 84 96 6.1 9.6 0.00 0.00 0.00 64 1014.9
20260906004002 84 95 6.1 10.4 0.00 0.00 0.00 64 1014.8
20260906002502 84 91 4.3 7.8 0.00 0.00 0.00 64 1014.8
20260906001503 84 94 5.2 10.4 0.00 0.00 0.00 63 1014.7
20260906000502 85 95 6.1 11.3 0.00 0.00 0.00 62 1014.3
20260905235003 86 94 6.1 12.2 0.00 0.00 0.00 60 1014.4
20260905234002 86 93 6.1 13.0 0.00 0.00 0.00 59 1014.2
20260905233503 87 92 5.2 11.3 0.00 0.00 0.00 58 1014.3
20260905232502 88 92 6.1 12.2 0.00 0.00 0.00 57 1014.2
20260905232003 88 92 6.1 12.2 0.00 0.00 0.00 56 1014.1
20260905231502 88 93 6.1 12.2 0.00 0.00 0.00 56 1014.0
20260905230502 89 93 7.0 13.9 0.00 0.00 0.00 57 1013.9
20260905230002 89 91 7.0 11.3 0.00 0.00 0.00 57 1013.7
20260905224502 89 93 7.0 14.8 0.00 0.00 0.00 57 1013.7
20260905223502 89 94 6.1 12.2 0.00 0.00 0.00 60 1013.7
20260905223002 89 95 7.8 15.6 0.00 0.00 0.00 60 1013.6
20260905222003 89 95 7.8 14.8 0.00 0.00 0.00 58 1013.4
20260905221502 89 94 7.8 13.9 0.00 0.00 0.00 57 1013.5
20260905221003 89 95 7.0 15.6 0.00 0.00 0.00 57 1013.4
20260905220003 89 94 8.7 15.6 0.00 0.00 0.00 56 1013.6
20260905215502 89 95 7.8 15.6 0.00 0.00 0.00 56 1013.7
20260905214003 88 93 7.8 16.5 0.00 0.00 0.00 55 1014.1
20260905213002 88 94 8.7 15.6 0.00 0.00 0.00 56 1014.2
20260905212503 88 95 7.8 14.8 0.00 0.00 0.00 56 1014.4
20260905212003 88 94 7.8 15.6 0.00 0.00 0.00 57 1014.4
20260905211502 88 93 8.7 15.6 0.00 0.00 0.00 58 1014.5
20260905211003 87 92 8.7 18.2 0.00 0.00 0.00 57 1014.6
20260905210502 87 94 8.7 18.2 0.00 0.00 0.00 58 1014.6
20260905205503 88 90 7.8 15.6 0.00 0.00 0.00 59 1014.6
20260905203503 87 95 10.4 19.1 0.00 0.00 0.00 59 1014.9
20260905203003 87 94 8.7 19.1 0.00 0.00 0.00 59 1014.9